Creek Data

    Home     View Charts     View Raw Data     Messages

ID Distance Battery Voltage Battery Current Internal Temp Internal Humidity External Temp Solar Input rssi snr Time Stamp Record
35181 15.1 4.00 -5 57 41 57 0 -74 8 03/16/2025 08:30 PM 16935
35180 15.1 4.05 -5 57 41 57 0 -75 8 03/16/2025 08:15 PM 16934
35179 15.1 4.06 -5 58 41 58 0 -77 7 03/16/2025 08:00 PM 16933
35178 15.1 4.01 -5 59 41 58 0 -75 8 03/16/2025 07:45 PM 16932
35177 15.1 4.01 -5 59 41 59 0.2 -76 8 03/16/2025 07:30 PM 16931
35176 15.2 4.00 -10 60 41 59 2 -76 8 03/16/2025 07:15 PM 16930
35175 15.2 4.07 0 61 41 60 4.5 -75 7 03/16/2025 07:00 PM 16929
35174 15.1 4.09 -9 62 41 61 4.5 -74 8 03/16/2025 06:45 PM 16928
35173 0.0 4.06 12 62 41 61 4.5 -75 8 03/16/2025 06:30 PM 16927
35172 15.1 4.08 -12 62 41 61 4.5 -75 8 03/16/2025 06:15 PM 16926
35171 0.0 4.06 11 63 41 62 4.5 -75 8 03/16/2025 06:00 PM 16925
35170 0.0 4.05 0 65 40 63 5.1 -75 8 03/16/2025 05:45 PM 16924
35169 0.0 4.05 0 65 40 63 5.1 -77 8 03/16/2025 05:30 PM 16923
35168 0.0 4.05 0 66 39 64 5.1 -77 8 03/16/2025 05:15 PM 16922
35167 0.0 4.14 0 64 40 63 5.1 -78 8 03/16/2025 05:00 PM 16921
35166 0.0 4.05 0 64 40 62 5.1 -76 8 03/16/2025 04:45 PM 16920
35165 0.0 4.05 0 64 40 64 5.1 -77 8 03/16/2025 04:30 PM 16919
35164 15.1 4.05 0 64 40 62 5.1 -75 7 03/16/2025 04:15 PM 16918
35163 15.1 4.05 0 64 40 62 5.1 -75 8 03/16/2025 04:00 PM 16917
35162 15.1 4.05 0 65 40 63 5.1 -76 8 03/16/2025 03:45 PM 16916
35161 15.1 4.05 0 63 41 62 5.1 -77 7 03/16/2025 03:30 PM 16915
35160 0.0 4.05 0 65 40 63 5.1 -76 9 03/16/2025 03:15 PM 16914
35159 0.0 4.05 0 64 40 63 5.1 -75 8 03/16/2025 03:00 PM 16913
35158 0.0 4.07 0 64 41 62 5.1 -77 8 03/16/2025 02:45 PM 16912
35157 0.0 4.15 0 66 40 63 5.1 -77 8 03/16/2025 02:30 PM 16911